Temp
19 19 19 19 19 20 20 20 19 19 19 19 19 19 19 19 19 19 19 19 19 19 19 19 19 18 18 18 18 18 18 19 19 18 19 19 18 17 16 16 15 15 15 15 16 16 16 15 15 14 14 14 14 13 13 13 13 14 13 14 14 14 14 14 14 15 15 15 15 15 15 15 15 15 16 16 16 16 16 16 15 15 15 14 14
19 19 19 19 19 19 20 20 20 19 19 19 19 19 19 19 19 19 19 19 19 19 18 18 19 19 18 18 18 18 18 18 18 19 19 19 18 18 17 16 15 15 15 15 15 16 15 15 15 14 14 14 14 14 13 13 14 14 14 14 14 14 14 14 15 15 15 15 15 15 15 15 15 16 16 16 16 16 15 15 15 14 14 14 14
19 19 19 19 19 19 19 20 20 19 19 19 19 19 19 20 19 19 20 20 20 19 18 18 19 19 19 18 18 18 18 18 18 19 19 19 18 18 17 16 15 15 15 15 15 15 15 15 15 15 14 14 14 14 14 14 13 14 14 14 14 14 14 15 15 15 15 15 15 15 15 15 16 16 16 16 16 15 15 15 14 13 14 13 13
19 19 19 19 19 19 19 19 19 19 19 19 19 19 19 19 19 19 19 19 19 19 18 18 19 19 19 19 18 17 17 18 18 18 19 19 19 18 18 16 16 15 15 15 15 15 15 15 15 15 14 14 14 14 14 14 14 14 14 14 14 15 15 15 15 15 15 15 15 15 15 16 16 16 16 16 15 15 15 14 14 13 14 13 13
18 19 19 19 19 19 19 19 19 19 19 19 19 19 19 19 18 18 18 19 19 18 18 18 19 19 19 19 18 18 18 18 18 18 19 19 19 19 18 18 17 16 15 15 15 15 15 15 15 15 15 14 14 14 14 14 14 14 14 14 15 15 15 15 15 15 15 15 15 15 16 16 16 16 16 16 15 15 14 14 14 14 14 13 13
18 18 18 19 19 19 19 19 19 19 19 18 18 18 18 18 18 18 18 18 19 18 18 18 19 19 19 19 19 18 18 19 19 19 18 19 19 19 19 18 18 17 16 15 15 15 15 15 15 15 15 14 14 14 14 14 14 14 14 14 15 15 15 15 15 15 15 15 15 15 16 16 16 16 16 16 15 14 14 14 14 14 13 13 12
17 17 18 18 18 18 18 19 19 19 19 18 18 18 18 18 18 19 19 19 19 19 19 19 18 19 19 19 19 19 18 19 19 19 18 18 19 18 18 18 18 18 18 17 16 15 15 15 15 15 15 15 14 14 14 14 14 14 15 15 15 15 15 15 15 15 15 15 15 15 16 16 16 16 15 15 15 14 14 14 14 13 13 12 12
16 17 17 17 17 18 18 18 19 19 19 18 18 18 18 18 18 19 19 19 20 20 19 19 18 18 19 19 19 19 19 19 19 19 19 19 19 18 18 18 18 18 18 18 18 16 15 15 15 15 15 15 15 15 14 15 14 14 15 15 15 15 15 15 15 15 15 15 15 16 16 16 16 15 15 15 14 14 14 13 13 13 12 12 12
15 16 16 16 17 17 17 17 18 18 18 18 17 18 18 18 18 18 19 19 20 21 20 19 19 19 19 18 19 19 19 19 19 19 19 19 19 19 18 18 17 17 17 17 18 17 16 15 15 14 14 14 15 15 15 15 14 14 15 15 15 15 15 15 15 15 15 15 15 16 16 16 15 15 15 14 14 14 13 13 12 12 12 12 11
15 15 16 15 15 16 16 16 17 17 17 17 17 18 18 18 18 18 18 18 20 21 21 19 19 19 19 18 18 19 19 19 19 19 19 19 19 19 18 18 17 17 17 17 18 18 17 16 15 14 14 14 14 14 15 15 14 15 15 15 15 15 15 16 15 15 15 16 16 16 16 16 15 15 14 14 14 13 13 12 12 12 11 11 11
15 15 16 15 15 15 16 16 16 16 17 17 17 17 17 17 18 18 18 18 19 20 21 20 19 19 19 19 19 19 19 19 19 19 19 19 19 19 19 18 18 17 17 17 17 18 18 17 16 15 15 15 15 14 15 14 14 15 15 15 15 15 16 16 15 15 16 16 16 16 16 15 15 15 14 13 13 13 12 12 12 11 11 11 11
14 14 15 15 15 15 16 16 16 15 16 16 17 17 17 17 18 18 18 17 18 19 21 20 19 20 19 19 19 19 19 19 18 18 19 19 19 19 19 18 18 18 17 17 17 18 18 18 17 17 17 16 15 15 15 14 14 15 14 15 15 15 16 15 15 16 16 16 16 15 15 15 15 15 14 13 13 12 12 12 11 11 11 11 11
13 13 14 14 14 15 16 16 16 16 16 15 16 17 17 17 17 18 18 17 17 19 21 20 19 20 19 19 19 19 19 19 18 18 19 19 19 19 18 18 18 18 18 18 17 18 18 18 17 17 17 17 15 15 15 14 14 15 15 15 15 15 15 15 15 16 16 16 15 15 15 15 15 14 14 13 13 12 12 11 11 11 11 10 10
13 13 13 13 14 14 14 15 15 16 16 15 16 16 16 17 17 17 18 18 18 19 21 20 20 20 20 20 19 19 19 19 19 19 19 19 19 18 18 18 19 19 18 18 18 18 18 18 18 17 18 18 17 16 16 15 15 15 15 15 15 15 15 15 15 16 16 16 15 15 15 15 15 14 14 13 12 12 11 11 11 11 10 10 10
14 14 14 14 14 14 14 14 14 15 15 15 16 16 16 16 17 17 18 18 18 19 20 20 20 21 20 20 20 20 19 19 19 19 19 19 18 18 18 18 19 19 18 18 18 18 18 18 18 18 17 18 18 17 17 16 16 16 15 15 15 15 15 15 15 16 16 16 15 15 15 15 15 14 13 13 12 12 11 11 10 10 10 10 9
14 14 14 14 14 14 14 15 14 14 14 15 16 16 16 16 16 16 16 17 17 18 19 19 20 21 21 21 21 21 20 20 19 19 19 19 18 18 18 19 19 19 19 18 18 18 18 17 17 17 17 17 17 17 17 17 16 16 15 15 15 15 15 15 15 16 16 16 15 15 15 15 14 13 13 12 12 11 11 10 10 10 9 9 9
13 13 14 14 14 14 14 15 15 15 15 15 16 16 16 16 16 16 16 16 17 17 18 19 19 20 21 22 22 21 21 22 21 20 20 19 19 19 18 19 19 19 19 19 19 18 17 17 17 17 17 17 17 17 17 17 17 16 15 15 15 15 15 14 15 16 16 16 15 15 15 15 14 13 12 12 11 11 10 10 10 9 9 8 8
12 13 13 14 14 14 14 14 14 15 15 15 15 16 16 16 16 16 15 16 17 16 17 18 18 19 20 21 22 22 22 23 23 22 21 20 19 20 19 19 20 19 19 19 19 18 17 17 17 17 16 16 16 16 16 17 17 16 16 16 15 15 15 14 15 16 16 16 15 15 15 14 14 13 12 12 11 11 10 10 9 9 8 8 8
12 12 12 13 13 14 14 14 14 15 15 15 15 15 16 16 16 16 15 16 16 16 17 17 18 19 20 20 21 21 22 22 23 22 22 21 20 20 20 20 20 19 19 19 19 18 17 17 17 17 16 16 16 16 17 17 17 16 16 16 16 15 15 14 15 15 16 16 15 15 14 14 14 13 12 11 11 10 10 9 9 9 9 8 8
11 11 12 12 13 13 13 14 14 14 15 15 16 16 16 15 15 15 15 15 15 15 16 17 17 17 18 19 20 20 21 22 22 23 23 23 22 21 21 21 20 19 19 19 19 18 17 17 17 18 17 17 17 17 17 17 17 16 16 16 16 15 15 14 15 15 16 16 15 14 14 14 13 13 12 11 11 10 10 9 9 9 9 8 8
11 11 11 12 12 13 13 13 14 14 14 15 15 15 16 15 15 15 15 15 15 15 15 16 16 17 17 18 19 19 20 21 21 22 23 23 23 22 21 20 19 19 19 18 19 18 17 17 17 18 18 17 17 17 17 18 17 17 16 16 16 15 15 14 15 15 16 15 14 14 14 14 13 13 12 11 11 10 10 9 9 9 8 8 8
11 11 11 11 11 12 13 13 13 14 14 14 15 15 15 15 16 16 15 15 15 15 15 15 16 16 16 17 18 18 20 21 21 21 22 23 23 23 22 21 19 19 19 18 18 18 18 17 17 18 18 18 17 18 17 17 17 17 17 16 16 15 15 14 15 15 16 15 14 13 14 13 13 13 12 11 11 10 10 9 9 9 8 8 8
11 11 11 10 10 11 12 12 13 13 13 14 14 15 15 15 15 16 16 15 15 15 14 15 15 15 16 16 17 17 18 20 21 21 21 22 23 23 23 22 21 20 19 18 18 18 18 18 17 18 18 18 17 18 17 17 17 17 16 16 15 15 14 14 15 15 15 14 13 13 13 13 13 12 11 11 11 10 9 9 9 9 9 8 8
11 11 11 10 10 10 11 12 12 13 13 14 14 14 15 15 15 15 15 15 15 15 14 14 15 15 15 16 16 16 17 18 20 21 21 22 22 22 23 23 22 22 20 18 18 19 19 19 18 18 18 18 17 17 17 16 16 16 16 15 15 14 14 14 15 15 15 14 13 13 12 12 12 11 11 10 10 10 10 9 9 9 9 9 8
11 11 10 10 10 10 10 11 11 12 13 13 14 14 14 14 15 15 15 15 15 15 14 14 14 15 15 15 15 16 16 17 19 20 20 21 21 22 23 24 23 23 22 20 19 19 19 19 19 19 18 18 17 16 16 16 16 16 15 14 14 14 14 14 14 15 14 13 13 12 12 12 11 11 10 10 10 10 10 10 10 10 9 9 9
10 10 10 9 10 10 10 10 10 11 11 12 13 13 13 14 15 15 15 15 15 15 15 15 15 15 15 15 15 15 16 16 17 18 19 20 20 21 22 23 23 23 23 21 20 20 20 19 19 19 18 17 16 15 15 15 15 15 15 14 14 14 13 14 15 15 14 13 13 12 12 11 11 11 11 10 10 10 10 10 9 9 9 9 8
9 9 9 8 8 9 9 9 9 9 10 11 12 12 13 13 14 15 15 15 15 15 15 15 15 15 15 15 15 15 15 16 17 17 19 20 20 21 21 22 23 23 23 23 22 21 20 19 18 18 17 16 15 15 15 15 14 14 14 14 13 13 13 14 14 14 14 13 13 13 12 12 12 11 11 11 10 10 10 9 9 9 9 8 8
9 8 8 8 8 8 8 8 9 9 9 10 11 12 12 13 14 14 15 15 15 15 15 15 15 15 15 15 15 15 15 15 16 17 18 19 20 20 21 21 22 22 22 23 23 22 21 19 17 17 16 15 15 15 14 14 14 14 14 13 13 13 13 14 14 14 14 13 13 13 12 12 12 12 11 11 10 10 9 9 9 8 8 8 8
9 8 8 8 8 8 8 8 8 8 9 9 10 11 12 13 13 14 15 15 15 15 15 15 15 15 15 15 15 15 15 15 16 16 17 18 19 19 20 21 22 22 22 22 22 23 22 19 18 17 16 15 14 14 14 14 13 13 12 12 12 12 13 14 14 13 13 13 13 12 12 12 12 11 11 10 10 9 9 9 8 8 8 8 8
8 8 8 8 8 8 8 8 8 7 8 8 9 10 11 12 13 13 14 15 15 16 15 15 15 15 15 15 15 15 15 15 15 16 16 17 18 18 19 21 21 22 23 23 22 23 22 20 18 17 16 14 13 12 13 13 12 12 12 11 12 13 13 13 13 13 13 13 12 12 12 12 12 11 11 10 9 9 9 8 8 8 8 8 7
8 8 8 8 8 8 8 7 7 7 7 8 8 9 10 11 12 13 14 15 15 16 16 16 16 15 15 15 15 15 15 15 15 15 16 16 17 17 17 19 21 21 22 23 23 23 22 20 19 17 15 13 12 12 12 12 12 12 12 11 12 13 13 12 13 13 13 12 12 12 11 11 11 11 10 10 9 9 8 8 8 8 8 7 7
8 8 8 7 7 7 7 7 7 7 7 7 8 9 9 10 11 12 13 14 15 16 16 16 16 16 16 16 15 15 15 15 15 15 16 16 16 17 16 18 20 21 21 22 22 23 22 20 20 18 14 13 13 13 13 11 11 11 11 11 12 12 12 12 12 12 12 12 11 11 11 11 10 10 9 9 9 8 8 8 8 7 7 7 7
8 7 7 7 7 7 7 7 7 7 7 7 7 8 9 10 11 12 13 13 14 15 16 16 16 16 16 16 16 16 16 16 16 16 16 16 16 16 16 17 19 21 21 21 21 23 21 20 20 17 15 14 13 12 12 11 11 11 10 11 12 11 11 11 11 11 11 11 11 10 10 10 10 9 9 9 8 8 8 8 7 7 7 7 7
7 7 7 7 7 6 6 6 6 6 7 7 7 7 8 8 9 10 12 13 13 14 15 16 17 17 17 16 16 16 16 16 16 16 16 16 16 16 16 16 18 20 21 21 21 22 20 18 18 16 14 14 13 12 12 11 11 10 10 11 10 10 10 10 10 10 10 10 10 10 10 9 9 9 8 8 8 8 8 7 7 7 7 7 7
7 7 7 6 6 6 6 6 6 6 6 6 6 6 7 7 8 9 10 11 12 13 14 15 16 16 17 17 16 16 16 16 16 16 16 16 16 16 16 15 17 19 20 20 21 22 20 17 17 16 14 14 13 12 11 11 10 10 10 10 10 9 9 9 9 9 9 9 9 9 9 9 9 8 8 8 8 7 7 7 7 7 7 7 7
7 7 7 6 6 6 6 6 6 6 6 6 6 6 6 7 7 8 8 10 11 12 13 14 15 16 17 17 17 17 16 16 16 16 16 16 15 16 16 15 16 18 19 19 21 21 19 17 17 16 15 14 14 12 11 10 10 10 10 10 9 9 9 8 8 8 8 8 8 8 9 8 8 8 8 7 7 7 7 7 7 7 7 6 6
6 6 6 6 6 6 6 5 5 5 5 5 6 6 6 6 7 7 8 9 10 11 12 13 14 15 16 16 17 17 17 16 16 15 15 16 16 16 16 16 16 18 19 19 20 20 19 18 17 16 14 14 13 12 11 10 10 10 10 9 9 8 8 7 7 8 8 7 8 8 8 8 7 7 7 7 7 7 7 7 7 7 6 6 6
6 6 6 6 6 6 5 5 5 5 5 5 5 5 5 5 6 6 7 8 9 10 11 12 13 14 15 16 16 17 17 17 16 16 15 16 16 16 16 16 16 18 19 19 19 20 19 17 16 16 14 14 13 12 11 11 10 10 9 9 8 8 7 7 7 7 7 7 7 7 7 7 7 7 7 6 6 6 6 6 6 6 6 5 5
7 7 6 6 6 5 5 5 5 5 5 5 5 5 5 5 5 6 7 8 9 10 11 11 12 13 14 15 16 16 17 17 17 16 16 16 16 17 16 16 16 17 19 19 19 20 19 17 16 16 15 14 13 12 12 11 11 10 10 9 9 8 7 7 7 6 6 6 6 6 6 6 6 6 6 6 6 6 6 6 6 6 5 5 5
6 6 6 6 5 5 5 5 5 5 5 5 5 5 5 5 5 6 6 7 8 9 10 11 12 13 14 14 15 16 17 17 17 16 16 16 16 17 16 16 16 17 18 18 19 20 19 17 16 16 15 14 13 12 12 11 11 11 10 10 9 8 7 7 7 6 5 6 6 6 6 6 6 6 6 5 6 6 5 5 5 5 5 5 5
6 6 6 6 5 5 5 5 5 5 5 5 5 5 5 5 5 6 6 7 7 8 10 11 12 13 13 14 15 16 16 17 17 16 16 16 16 17 17 16 15 16 17 17 17 18 19 17 17 16 15 14 13 12 12 11 11 11 10 10 9 8 7 7 6 6 6 6 6 5 5 5 6 5 5 5 5 5 5 5 4 4 4 5 5
6 6 6 6 5 5 5 5 5 4 5 5 5 5 4 4 5 6 6 7 7 8 9 11 12 13 13 14 15 15 15 16 17 17 16 16 16 16 16 16 16 16 17 17 16 17 18 17 17 16 15 15 14 13 12 12 12 12 11 10 10 8 8 7 6 6 6 6 6 6 5 5 5 6 6 6 5 5 5 5 4 3 4 5 4
6 6 6 5 5 5 5 5 4 4 4 4 4 4 4 4 4 5 6 7 7 8 9 10 12 13 14 14 15 15 15 16 16 16 16 16 16 16 15 16 16 16 16 17 17 17 18 17 16 16 16 15 14 13 13 12 12 12 11 11 10 9 8 8 7 6 6 6 6 6 6 6 6 7 7 8 6 5 6 5 4 4 4 4 4
5 5 5 5 5 5 5 5 4 4 4 4 4 4 4 4 4 4 5 6 7 8 9 10 12 13 14 14 15 15 15 16 16 16 16 16 16 16 15 15 16 16 16 16 17 18 18 17 16 16 16 15 13 13 13 12 12 12 11 11 10 9 9 9 9 7 6 6 7 7 7 6 6 7 8 8 7 6 6 6 5 4 4 4 4
5 5 5 5 5 5 4 4 4 4 4 4 4 4 4 4 4 4 4 4 6 7 8 10 11 13 14 14 15 15 15 16 16 16 16 16 16 15 15 15 16 16 16 16 16 17 17 17 16 16 16 15 13 13 13 12 12 11 11 11 10 10 10 10 9 7 6 6 6 7 7 6 6 8 8 8 7 6 5 5 5 5 4 4 4
4 4 4 4 4 4 4 4 4 4 4 4 4 4 4 4 4 3 3 4 5 6 7 9 10 12 13 14 15 16 16 16 16 17 17 16 15 15 15 14 15 15 15 15 16 16 16 17 17 16 16 15 15 14 13 12 11 11 11 11 10 10 10 9 8 7 7 7 7 7 9 8 7 8 9 8 7 6 5 5 5 4 4 4 4
4 3 3 3 3 3 3 3 3 3 4 4 4 4 4 4 4 3 3 3 4 5 7 8 9 10 12 14 15 15 16 16 16 17 17 16 15 14 14 13 14 14 14 14 15 15 15 16 16 16 16 15 15 14 13 11 11 11 11 11 10 9 8 7 6 6 6 6 6 8 10 9 8 9 10 8 7 6 5 4 4 4 4 4 4
3 3 3 3 3 3 3 3 3 4 4 4 4 4 4 4 4 3 3 4 4 5 6 7 8 9 10 12 14 15 15 16 16 16 16 16 15 14 13 12 12 13 13 13 14 14 14 14 15 15 15 15 14 13 12 11 11 10 10 9 8 7 7 6 5 5 5 5 6 8 11 10 8 9 10 8 7 7 5 4 4 4 4 4 4
3 3 3 3 3 3 3 3 3 3 4 4 4 4 4 4 4 4 3 4 4 5 6 7 8 9 10 12 13 15 15 16 16 16 16 15 15 13 12 11 11 11 11 11 12 13 13 13 14 14 14 14 13 12 12 11 10 10 10 8 7 7 7 7 7 6 6 6 6 8 10 11 9 9 10 8 7 8 6 5 4 4 4 4 4
3 3 3 3 3 2 2 3 3 3 3 3 3 3 4 4 4 4 4 4 5 5 6 6 7 9 10 11 12 14 15 15 16 15 15 15 14 13 12 11 10 10 10 9 10 11 11 12 12 12 12 12 11 11 10 10 10 10 10 8 7 7 7 8 8 8 8 7 6 7 10 10 9 9 10 9 8 8 7 6 5 4 4 4 4
3 3 3 3 2 2 2 2 2 2 3 3 3 3 4 4 4 4 4 4 5 6 6 7 8 8 10 11 12 13 14 15 15 15 14 14 14 13 12 11 10 9 9 9 9 10 10 10 10 10 9 9 9 9 9 9 8 9 9 9 7 7 8 8 8 9 9 9 7 7 9 10 9 9 9 9 9 8 7 6 6 5 5 5 5
Height
834 834 834 835 836 837 839 840 842 843 845 846 846 848 849 849 851 852 853 854 855 857 858 859 860 860 860 860 861 861 862 862 863 863 864 864 864 863 863 864 865 866 866 867 867 868 868 868 868 868 868 868 869 869 870 870 870 870 871 871 871 871 871 871 871 871 871 870 870 869 869 868 867 867 866 865 865 864 863 863 862 861 860 859 858
833 833 833 834 836 836 837 839 840 842 843 844 845 846 847 848 850 851 852 853 854 856 857 858 859 859 860 860 860 861 861 862 862 863 863 864 864 863 863 864 865 865 866 866 867 867 868 868 868 868 868 868 869 869 870 870 870 870 870 871 871 872 872 872 872 871 871 871 870 870 869 869 868 867 867 866 866 865 864 864 863 862 861 860 859
832 832 832 833 834 835 836 838 839 841 842 843 844 845 846 847 848 850 851 852 853 854 856 857 857 858 858 859 859 860 860 861 862 862 863 863 864 864 863 863 864 865 865 866 866 867 867 868 868 868 868 868 869 870 870 870 870 870 870 871 871 872 872 872 872 871 871 871 870 870 869 869 869 868 868 867 866 866 865 864 864 863 862 861 860
830 830 832 833 833 834 835 836 838 840 841 842 843 844 845 846 847 848 850 851 852 854 855 856 856 856 857 858 858 859 859 860 861 861 862 862 863 864 863 863 864 864 865 865 866 866 867 867 868 868 868 868 869 869 870 870 870 870 870 871 871 871 872 872 872 871 871 871 871 870 870 870 869 869 868 868 867 866 866 865 864 863 862 861 860
829 830 831 832 832 833 834 835 836 838 839 841 841 843 844 845 846 847 849 850 851 853 854 854 855 855 856 856 857 857 858 859 860 860 861 862 862 863 863 863 863 863 864 864 865 865 866 867 867 867 868 868 869 869 870 870 870 870 870 870 871 871 871 871 871 871 871 871 870 870 870 870 870 870 869 868 867 867 866 866 865 864 863 862 861
828 829 830 830 831 832 833 834 835 837 838 839 840 841 842 844 845 846 848 849 850 851 852 853 853 854 855 855 856 856 857 857 858 859 860 861 861 862 862 863 863 863 863 863 864 865 865 866 866 867 867 868 868 868 869 870 870 870 870 870 871 871 871 871 871 871 871 871 870 870 871 870 870 870 869 868 868 867 867 866 865 865 864 863 862
827 827 828 829 830 831 832 833 835 836 837 838 839 840 841 843 844 845 846 847 848 849 850 851 852 852 853 854 854 855 856 856 857 858 859 859 860 861 861 862 862 862 863 863 863 863 864 865 866 866 867 867 867 868 868 869 870 870 870 870 870 871 871 871 871 871 871 871 870 870 870 870 870 870 869 869 868 868 867 867 866 865 865 864 863
825 826 827 828 829 830 831 833 834 835 837 838 838 840 841 841 843 844 844 845 846 847 848 849 850 851 852 852 853 854 854 855 856 857 857 858 858 859 860 861 861 861 862 862 862 862 863 864 865 865 866 867 867 867 868 868 869 869 869 870 870 870 870 871 871 871 871 870 870 870 870 870 870 870 869 869 868 868 868 867 866 866 865 865 864
824 825 826 827 829 830 831 831 833 834 836 837 837 839 840 840 841 842 843 843 843 844 846 848 848 849 850 851 852 852 853 853 854 855 856 856 857 857 858 859 860 860 860 861 861 861 862 863 864 865 865 866 866 867 867 867 868 868 869 869 869 870 870 870 870 870 870 870 870 870 870 870 870 869 869 869 869 869 868 868 867 867 866 866 865
824 824 825 826 827 827 828 830 831 833 834 835 836 837 839 839 840 841 842 842 842 842 844 846 846 847 848 849 850 851 852 852 853 854 854 854 855 856 856 857 858 858 859 859 860 861 861 861 862 863 864 864 865 866 866 867 867 867 868 868 869 869 869 870 870 870 870 870 870 870 870 870 869 869 869 869 869 869 869 868 868 867 867 866 866
824 824 825 826 826 826 827 827 829 830 831 833 834 835 837 837 838 840 840 842 842 841 842 845 845 845 846 847 848 849 850 851 852 852 852 852 853 854 854 855 856 856 857 857 858 859 860 860 861 862 862 862 863 865 865 866 866 866 866 867 868 868 869 869 869 869 869 870 870 870 870 870 869 869 869 870 869 869 869 869 868 868 868 867 866
823 824 824 824 824 825 826 826 827 828 830 831 832 833 834 835 837 838 839 840 841 841 842 844 845 844 845 845 846 848 848 850 850 850 851 851 851 852 852 853 853 854 854 855 856 857 858 859 859 860 861 860 861 863 864 864 865 865 865 865 866 867 868 868 869 869 869 869 870 870 870 870 869 869 869 870 870 869 869 869 869 868 868 868 867
823 824 824 824 823 823 824 824 826 827 828 829 830 831 831 833 835 837 838 838 840 840 840 843 844 842 843 844 845 846 847 848 848 848 849 849 849 850 850 851 851 851 852 853 854 855 856 857 858 859 860 860 859 860 861 862 863 863 863 864 865 866 867 867 868 868 869 869 869 870 870 869 869 869 869 870 870 869 869 869 869 869 868 868 868
823 823 824 824 823 823 822 823 824 825 826 827 828 829 829 830 832 834 835 836 837 838 838 840 841 839 840 842 843 844 845 846 846 846 846 846 847 848 848 848 848 849 850 851 852 853 854 855 855 856 857 858 859 859 860 860 860 861 862 862 864 864 865 866 867 867 868 869 869 869 869 869 869 869 869 869 869 869 869 869 869 869 868 868 868
823 823 823 823 823 823 822 822 823 823 823 824 825 825 826 826 828 830 831 833 835 836 835 838 838 837 838 838 839 841 842 843 843 843 843 844 845 845 845 846 846 846 847 848 849 850 851 852 853 854 855 856 857 858 859 859 859 860 860 861 862 863 864 865 866 867 868 868 869 869 869 869 869 869 869 869 869 869 869 869 869 868 868 868 869
823 823 822 822 822 822 822 822 822 822 821 821 823 823 823 824 825 826 829 830 832 833 833 835 836 835 834 834 833 836 837 836 838 839 840 841 842 843 843 843 843 844 845 845 846 847 848 850 850 852 853 854 855 856 857 858 858 858 859 860 861 862 863 864 864 866 867 867 868 869 869 869 869 869 869 868 868 869 869 869 869 869 868 868 869
821 821 821 821 821 821 821 821 821 820 819 819 820 820 820 822 823 824 825 826 828 830 831 831 833 833 832 831 830 832 831 829 832 835 836 838 838 839 841 841 841 842 842 842 843 844 845 847 848 849 850 851 853 854 855 856 856 856 858 858 859 861 862 863 864 864 865 866 867 868 869 869 869 869 869 868 868 869 869 869 869 869 869 869 869
820 820 820 820 820 819 819 819 819 818 817 817 817 817 818 819 821 821 821 823 825 827 828 828 830 831 830 829 828 827 826 825 827 829 831 834 836 836 837 838 839 840 840 840 840 842 843 844 845 846 848 848 850 851 852 854 854 855 856 857 858 859 861 862 863 864 864 865 867 867 868 868 869 869 869 868 869 869 869 870 870 869 869 869 869
819 819 819 818 818 818 817 817 817 816 815 815 814 815 816 817 818 818 818 820 822 824 826 827 828 829 828 828 827 826 825 824 824 825 826 829 831 832 833 834 836 837 838 838 838 840 841 842 843 844 845 846 847 849 850 851 853 854 855 855 856 858 859 861 862 862 863 864 866 867 868 868 869 869 869 869 869 869 870 870 870 870 870 870 870
818 818 817 817 817 817 816 816 815 814 814 813 813 813 814 814 815 816 816 817 818 820 823 825 826 827 828 828 827 827 826 824 823 823 822 823 825 828 830 831 833 835 835 836 836 837 839 840 840 841 842 843 845 846 848 849 851 852 852 853 854 856 857 859 860 861 862 863 864 865 867 867 868 868 869 869 869 870 870 871 871 871 870 870 870
817 816 816 816 815 815 815 814 814 813 812 812 811 811 812 812 812 813 814 814 815 817 819 821 822 825 826 827 826 826 826 824 824 822 820 820 819 821 826 829 831 832 833 833 834 835 837 838 838 839 839 841 842 844 846 847 849 850 850 851 852 854 855 858 859 860 860 861 863 864 865 866 867 868 868 869 869 870 870 870 871 871 870 870 870
816 815 815 814 814 814 813 813 812 812 811 810 810 810 810 810 810 810 811 812 813 815 816 818 820 822 824 825 825 825 824 822 822 822 821 819 817 816 820 825 827 828 829 831 832 833 834 835 836 836 837 838 840 842 843 845 847 848 848 849 851 852 854 856 857 858 859 860 861 862 864 865 866 867 868 869 869 869 870 870 871 870 870 870 870
815 814 814 813 813 812 812 812 811 810 810 809 808 808 808 807 807 808 808 809 811 812 814 815 817 819 820 822 822 822 822 821 819 820 820 818 817 816 816 819 822 823 825 828 829 831 832 833 834 834 835 836 838 839 842 844 845 846 846 848 849 851 853 855 856 857 858 859 860 861 862 863 865 866 867 868 868 869 869 870 870 870 870 870 870
814 813 813 812 812 811 811 810 810 809 808 807 807 806 806 805 805 805 805 806 807 808 810 811 813 814 816 818 819 820 821 820 818 819 819 817 816 815 813 814 817 818 820 825 827 828 829 830 831 833 833 834 836 838 840 841 842 843 845 846 848 850 853 855 855 856 857 858 859 860 861 862 864 865 866 867 868 868 868 869 869 869 869 869 870
813 813 812 811 811 810 810 809 809 808 807 806 805 804 804 803 803 802 802 803 803 804 805 807 808 810 812 814 815 816 817 818 818 818 817 816 816 815 812 810 812 814 816 821 824 825 826 827 829 831 832 833 834 836 838 839 840 841 843 845 847 849 852 854 855 855 857 858 859 860 860 862 863 864 865 866 866 867 867 868 868 868 868 869 869
812 811 811 810 809 809 808 808 807 807 806 805 803 802 801 801 800 800 799 800 800 801 801 802 804 806 807 809 810 812 813 815 817 816 815 814 814 813 811 808 808 811 812 815 820 822 822 824 827 828 830 831 833 834 836 837 838 839 841 843 846 848 851 852 853 855 856 857 858 859 860 861 862 863 864 865 865 866 867 867 867 867 868 868 868
809 809 809 808 808 807 806 806 805 805 804 803 802 800 799 798 798 797 797 797 797 797 798 799 800 802 803 804 807 808 809 811 813 812 811 811 810 811 811 808 807 809 809 810 814 817 819 823 826 827 828 830 832 834 836 836 836 837 840 842 845 847 849 851 852 854 855 856 857 858 859 859 860 861 862 863 864 865 866 866 866 866 867 867 867
807 807 806 806 806 805 804 803 803 803 802 801 800 799 798 796 795 794 794 794 794 794 794 794 795 797 798 800 802 803 805 807 809 809 808 808 808 808 808 807 806 807 807 808 809 811 816 820 824 826 827 829 831 833 834 835 835 837 839 841 843 846 848 849 851 853 854 855 856 857 858 858 859 860 861 862 863 864 864 865 865 866 866 866 866
805 805 804 804 804 803 802 801 800 800 799 799 798 797 796 794 793 792 791 791 791 790 791 790 791 793 795 796 798 799 802 803 804 805 805 806 806 805 804 805 804 803 803 805 806 806 810 816 820 824 826 828 830 831 832 833 834 837 840 840 842 844 847 848 850 852 853 854 855 856 857 858 858 859 860 861 862 863 863 864 864 865 865 865 865
803 803 802 802 802 801 800 799 798 798 797 796 795 794 793 792 790 789 788 788 788 787 787 787 788 789 790 792 793 795 797 798 798 800 802 802 802 802 802 802 802 800 799 800 801 802 806 811 816 820 823 826 827 828 830 831 833 837 839 840 840 842 845 847 849 850 852 853 855 855 856 857 858 858 859 860 861 862 862 863 863 864 864 864 864
801 801 800 800 799 799 798 797 796 795 794 793 792 791 790 789 788 786 785 784 784 783 783 783 784 785 785 787 788 789 791 792 793 795 798 799 799 799 800 800 798 798 798 797 798 799 802 807 812 815 819 822 823 824 827 830 832 836 838 838 839 841 843 846 848 849 851 852 854 855 855 856 857 858 859 859 860 861 861 862 862 863 863 863 863
799 799 798 797 797 796 795 794 793 792 792 791 790 789 788 786 785 783 782 781 780 779 780 780 780 780 780 781 782 783 785 787 787 790 792 795 796 796 798 798 796 796 797 797 796 796 799 803 808 811 815 817 819 821 824 828 831 834 835 836 839 841 843 845 847 848 850 851 852 853 854 855 856 857 858 859 859 860 861 861 861 862 862 862 862
797 796 795 795 794 793 792 791 790 790 789 788 787 786 785 783 782 780 779 778 777 776 776 776 776 776 776 777 777 778 780 781 781 784 787 790 792 793 794 795 794 793 794 795 795 794 797 801 805 808 811 813 817 819 821 825 829 832 833 835 839 841 842 843 845 847 848 849 851 852 853 854 856 857 857 858 858 859 860 860 860 860 861 861 861
794 793 792 792 791 790 789 788 787 786 785 785 784 783 782 780 779 778 776 775 774 773 772 771 771 772 772 772 772 774 776 776 776 779 781 784 786 788 790 792 792 791 791 792 793 793 796 801 804 806 809 811 814 817 819 822 826 830 832 835 839 840 841 842 844 845 847 848 849 851 852 853 855 856 856 857 857 858 859 859 859 859 859 859 859
790 790 789 788 788 787 786 785 784 783 782 781 780 779 778 777 775 774 773 772 771 770 769 768 767 768 767 767 767 768 771 772 773 774 776 778 781 783 786 788 789 789 790 791 790 790 794 799 802 804 807 809 812 815 818 821 824 827 831 835 838 839 840 842 843 844 845 847 848 849 850 852 853 854 855 856 856 857 857 858 858 858 858 858 858
787 786 785 785 784 784 783 781 780 779 778 777 776 775 774 773 772 771 770 769 768 767 766 765 764 763 763 762 762 764 766 767 768 770 771 772 775 778 781 784 785 785 787 788 788 788 791 795 799 802 804 807 810 812 816 820 824 827 830 834 837 839 840 841 841 842 844 846 847 848 849 851 852 853 854 854 855 855 856 856 856 856 856 856 856
783 782 782 781 780 779 778 777 776 775 773 772 771 770 770 769 768 767 766 765 764 763 762 761 760 759 759 758 758 759 761 761 762 764 766 766 769 772 775 777 780 781 782 784 786 786 788 792 796 799 802 804 807 811 813 817 822 827 830 833 836 837 838 839 840 842 844 845 847 848 848 850 851 852 853 853 854 854 854 854 855 855 855 855 854
779 778 777 777 776 774 773 772 771 770 769 768 766 765 765 764 764 763 762 761 760 759 758 757 756 755 754 754 754 755 755 755 755 757 761 762 763 765 767 770 775 776 776 779 782 783 785 789 792 795 798 801 804 809 812 814 818 823 827 832 835 836 837 838 839 842 843 844 846 847 847 849 850 850 851 852 852 853 853 853 853 853 853 853 853
774 773 772 772 771 770 768 767 766 765 763 762 761 760 760 759 759 758 757 757 756 755 754 752 751 751 750 749 749 750 749 749 749 751 755 757 758 759 760 764 770 772 772 774 777 778 781 786 789 790 794 798 801 805 810 813 816 819 823 827 831 834 836 837 838 840 841 843 844 846 847 848 848 849 850 851 851 851 851 851 852 852 852 851 851
770 769 768 767 766 765 763 761 760 759 758 756 755 754 754 754 753 753 753 752 751 750 749 747 747 746 745 745 744 744 744 743 744 746 748 752 754 754 756 760 765 768 768 770 772 773 776 781 784 786 790 795 799 803 807 811 814 817 819 822 826 829 833 835 837 838 840 841 843 844 846 846 847 848 849 849 850 850 850 850 851 851 850 850 850
766 765 763 762 761 759 758 756 755 754 752 750 749 749 748 748 748 748 748 747 747 746 744 742 741 740 740 740 739 738 738 739 740 741 743 747 750 751 752 755 760 763 764 766 769 770 773 777 779 782 786 791 795 799 803 805 807 811 815 819 822 826 829 833 836 837 838 840 842 843 844 845 846 847 848 848 848 848 849 849 850 849 849 848 849
762 761 759 757 756 754 752 751 750 748 746 744 742 742 743 743 744 744 743 742 742 741 740 738 736 735 734 734 734 734 734 735 736 737 739 742 745 747 748 751 755 758 760 762 764 767 769 772 774 777 782 786 790 793 796 799 802 806 810 813 817 822 826 830 834 836 837 838 840 842 843 844 845 846 847 848 846 846 848 849 848 847 847 847 847
758 756 754 753 751 749 747 745 744 742 740 737 737 737 737 738 739 740 739 738 737 736 735 733 731 729 729 729 729 729 730 730 732 733 734 737 740 742 745 747 749 753 755 756 759 761 764 767 770 773 776 781 785 789 793 796 800 802 805 808 812 816 820 824 828 832 834 836 838 840 841 842 844 845 846 846 845 845 847 847 846 845 845 846 846
754 752 750 748 746 744 742 740 738 736 734 732 732 732 732 733 734 735 735 734 733 731 730 728 726 725 724 724 724 724 724 725 727 729 730 733 735 737 741 743 745 748 750 752 754 756 759 763 765 768 772 776 781 785 788 791 795 798 802 805 808 811 814 818 821 825 828 832 835 837 839 840 842 843 843 844 843 844 844 844 844 844 844 844 844
750 748 745 743 740 739 736 734 732 730 727 726 726 726 726 727 729 730 730 729 728 726 725 723 721 720 719 719 718 718 719 720 722 724 726 728 731 734 736 738 740 743 746 750 753 754 756 758 760 763 767 770 775 779 781 785 789 793 797 800 803 807 811 814 817 819 823 828 832 835 836 837 839 840 841 841 842 842 841 841 842 842 842 842 843
746 743 740 738 735 733 731 728 726 724 721 720 720 720 720 721 723 724 724 724 723 721 720 718 717 715 714 713 713 712 713 715 717 719 721 723 726 730 733 734 736 738 742 746 750 752 754 755 756 759 762 765 768 772 776 781 784 787 790 794 798 803 807 811 813 816 820 825 829 833 834 835 836 838 838 838 840 840 839 839 839 840 840 841 841
742 738 735 732 729 727 725 723 720 717 715 714 714 714 714 715 716 717 717 717 717 715 714 713 712 710 709 709 708 707 708 709 711 713 715 719 722 725 729 731 733 736 740 743 745 749 752 754 755 756 759 762 765 768 773 778 781 784 786 790 795 800 805 809 813 816 820 823 827 830 831 832 833 835 835 836 838 839 837 837 837 838 838 839 840
738 734 731 727 724 721 719 717 714 710 708 707 707 707 707 708 709 710 710 710 710 708 708 707 706 706 705 704 703 703 703 704 706 708 711 715 718 721 725 729 730 733 736 739 741 745 748 750 753 755 757 761 764 767 771 775 778 782 787 791 796 800 804 809 814 817 820 822 825 827 828 828 831 832 833 834 836 837 836 835 835 836 837 838 838
733 729 726 722 719 716 713 711 708 704 701 700 700 699 699 701 702 702 702 703 702 702 701 701 701 700 699 699 698 698 699 700 701 704 707 711 715 717 721 726 729 731 733 736 738 742 745 748 752 754 757 760 763 766 769 772 775 778 784 790 795 798 802 807 812 815 818 820 822 824 825 826 828 830 831 833 834 834 835 834 834 834 835 836 837
728 725 721 717 714 711 708 705 702 699 695 693 693 692 691 692 693 694 695 696 695 695 694 695 695 694 693 693 694 694 694 695 697 700 702 707 711 713 716 721 726 729 731 734 737 740 743 747 750 753 756 759 762 765 769 772 774 777 780 784 789 794 800 804 808 812 816 818 819 821 822 824 825 827 829 831 832 833 833 833 833 833 834 834 835
724 720 717 713 709 706 703 699 696 693 688 685 684 683 683 684 686 687 689 689 688 688 688 688 689 689 688 688 689 690 691 692 693 695 698 703 707 709 712 717 722 726 728 732 734 736 739 744 748 751 755 759 762 766 769 772 775 778 780 782 786 791 796 800 805 809 812 814 815 818 820 821 823 825 827 828 829 830 831 832 832 833 833 833 833
Wind_Speed
14 16 16 14 14 17 17 17 17 15 16 17 15 14 13 11 11 11 10 9 9 9 9 10 10 10 11 11 10 11 10 9 7 6 6 6 6 7 7 8 9 7 7 8 8 8 7 7 6 4 3 2 3 1 0 0 3 2 2 4 6 6 7 7 7 7 6 7 8 8 8 9 9 9 11 12 12 11 10 10 10 10 10 10 11
15 16 19 17 16 18 18 18 18 16 16 17 14 13 13 12 11 11 10 10 9 9 9 10 11 11 12 11 11 11 11 10 8 7 7 6 6 7 7 8 10 9 8 8 8 9 9 8 7 5 4 3 3 2 1 1 2 1 4 6 7 6 6 6 6 5 6 7 7 7 8 7 7 10 11 12 11 10 9 9 10 10 10 11 11
15 14 17 18 15 17 19 18 17 16 16 16 14 13 13 12 11 11 10 10 10 9 10 11 11 12 12 12 12 12 12 11 10 9 8 7 7 7 6 8 11 11 9 9 8 9 9 9 8 6 6 4 3 3 2 1 2 1 6 7 6 6 6 5 5 5 6 6 6 7 7 7 8 10 11 11 10 9 8 8 9 10 10 11 11
17 16 15 16 16 16 17 18 17 16 16 14 13 13 13 12 11 11 10 9 9 9 10 11 12 12 12 13 13 12 12 12 11 10 9 8 7 7 7 7 10 12 11 10 9 9 10 10 9 7 6 5 5 4 3 3 3 3 7 7 6 6 5 5 4 4 5 5 6 6 6 8 9 10 10 9 9 8 8 8 9 10 10 11 12
17 17 15 15 18 19 17 18 18 15 14 13 13 14 13 12 10 10 10 9 9 9 10 11 12 12 12 13 13 13 13 13 11 10 9 9 8 8 8 7 9 11 11 11 11 12 11 10 10 8 7 6 6 4 3 3 3 4 7 7 7 5 5 4 3 4 5 5 5 6 6 8 9 9 8 8 8 8 8 9 9 10 11 12 12
13 15 16 15 17 22 22 19 17 16 14 13 13 14 13 11 10 11 10 10 10 10 11 11 12 13 13 13 14 14 14 13 12 11 10 10 9 8 8 8 9 10 11 11 12 14 11 9 11 9 7 7 6 4 3 3 2 5 8 7 7 5 4 3 3 3 4 4 4 5 6 8 8 7 7 8 9 8 8 9 10 10 11 11 12
12 12 17 18 16 20 23 18 15 16 14 14 14 14 14 12 11 11 11 11 11 11 12 11 12 13 13 13 14 14 14 14 13 12 11 11 10 10 9 9 9 9 10 11 12 15 14 11 12 10 8 8 7 4 4 4 3 5 8 9 7 5 4 3 2 3 3 3 3 4 5 6 7 7 7 8 8 8 8 9 9 10 11 11 12
14 12 13 16 17 19 20 18 17 16 15 14 15 14 14 14 13 13 12 12 12 12 11 11 11 12 13 13 14 14 15 15 14 13 12 12 11 11 10 10 10 9 10 11 11 14 15 14 14 12 10 10 9 7 5 5 5 6 9 10 7 5 3 2 1 2 2 2 2 4 5 5 6 6 7 7 7 7 7 8 9 10 11 11 12
13 15 11 10 14 17 17 18 19 19 17 14 15 16 14 15 15 14 13 12 12 12 11 11 11 12 13 13 14 14 15 15 15 14 14 13 12 12 11 11 11 10 11 11 11 13 14 15 16 14 13 11 11 11 7 5 6 7 11 10 6 4 1 1 3 2 1 0 4 5 4 4 5 6 6 6 6 6 7 8 9 10 11 12 12
12 15 14 10 9 11 13 17 19 21 22 19 16 18 17 16 15 15 13 12 12 12 11 11 10 12 13 14 14 15 15 16 16 15 15 14 14 13 13 12 12 11 11 12 13 13 13 13 15 15 16 14 12 13 10 6 7 8 11 8 5 2 2 4 5 2 1 4 6 5 3 3 4 5 5 5 6 6 7 8 9 10 11 11 12
10 14 17 16 14 13 13 16 18 18 22 25 23 20 19 18 17 16 15 13 12 11 11 10 10 11 12 13 15 15 15 16 16 16 16 15 14 13 13 13 12 12 12 12 13 14 14 13 13 14 16 17 15 14 13 10 9 11 11 9 7 4 4 8 6 2 4 7 6 4 2 2 4 5 5 4 5 6 7 8 9 10 11 11 11
7 10 13 15 17 18 17 19 19 17 18 24 29 26 22 21 19 17 17 15 13 13 12 11 10 11 11 12 13 14 16 16 17 17 17 16 15 14 14 13 12 13 13 13 14 15 16 15 15 14 14 16 15 14 15 15 14 14 14 12 9 5 6 11 6 3 6 8 6 4 2 2 4 5 4 4 5 6 7 8 9 9 10 10 11
5 6 8 9 12 14 17 20 22 21 20 23 29 29 25 23 21 19 18 16 15 16 15 13 12 11 11 12 13 13 15 16 18 18 18 17 16 15 14 14 13 13 13 14 15 15 16 17 17 16 15 14 13 12 13 16 19 18 17 14 11 6 8 13 8 5 8 8 6 4 2 2 3 4 4 4 4 5 7 8 9 9 10 10 10
4 4 6 7 8 10 12 14 17 21 22 23 26 29 27 24 21 19 20 18 17 18 17 15 14 13 12 10 11 12 15 17 19 19 20 18 17 16 16 16 15 14 14 14 16 16 16 17 17 17 17 15 14 12 10 13 18 20 19 15 13 8 9 14 10 7 9 8 6 4 2 3 3 4 4 4 4 5 6 7 8 9 9 9 10
4 5 5 6 7 8 9 9 11 16 21 23 24 25 28 28 24 22 21 19 18 18 19 19 16 13 12 9 8 9 12 16 19 20 20 19 17 17 17 18 17 15 14 15 16 16 16 16 17 18 18 17 16 13 11 11 14 20 21 16 15 11 11 16 12 8 9 8 7 4 3 3 3 4 4 5 5 5 6 6 8 8 9 9 10
6 6 6 7 7 8 9 10 11 14 18 23 23 22 24 28 30 28 24 20 19 21 21 22 19 14 11 8 8 8 8 11 17 19 20 20 19 18 18 19 18 16 15 16 16 16 15 16 17 18 18 18 17 14 12 11 13 20 22 18 17 13 13 17 14 10 10 9 7 4 3 3 4 5 5 5 5 6 6 6 7 8 9 9 10
7 6 7 8 8 8 9 10 11 12 15 20 24 24 23 25 29 31 30 27 23 22 21 23 23 20 14 9 8 7 6 9 11 13 17 20 19 20 20 20 18 16 16 16 15 14 15 16 17 17 18 18 17 15 13 12 13 19 22 20 19 14 15 19 15 11 11 10 7 5 4 4 5 7 6 5 6 6 6 6 7 8 9 9 10
8 8 7 8 9 9 9 9 10 11 13 16 19 22 23 26 31 33 33 33 29 23 20 22 24 25 21 16 11 7 6 8 8 7 12 16 18 20 21 21 20 17 16 16 14 13 14 16 17 17 17 17 17 16 15 14 14 16 18 19 20 16 17 21 17 12 12 10 8 5 4 5 6 8 7 6 6 7 7 8 9 10 10 10 10
8 8 8 9 9 10 11 10 10 11 12 14 16 18 21 23 28 33 33 33 31 24 20 20 20 23 24 21 18 13 9 8 7 6 7 11 15 19 20 21 20 19 18 16 15 13 13 15 16 17 17 17 17 16 15 15 16 16 16 19 20 17 19 22 17 13 13 11 8 6 5 5 7 8 8 7 7 8 9 10 11 11 10 10 10
8 8 8 9 9 10 10 11 12 12 11 13 15 17 20 19 21 28 31 31 31 30 26 21 18 20 22 21 20 18 15 12 10 9 7 6 10 14 18 19 20 20 19 16 16 15 14 14 14 15 16 16 16 16 16 16 16 16 17 19 20 19 21 23 18 15 14 12 9 7 6 6 7 8 8 9 9 9 9 9 10 10 9 9 9
8 8 8 8 9 10 10 11 12 13 13 13 14 15 18 21 22 25 28 30 31 33 31 26 22 21 21 20 20 20 19 18 15 14 11 9 8 8 13 16 17 19 19 17 17 16 15 14 14 14 15 15 16 16 15 15 15 15 17 20 20 20 23 23 19 16 15 13 10 8 7 7 7 8 9 10 9 9 8 7 7 8 8 8 7
9 9 9 9 9 9 10 11 12 13 14 14 15 15 16 19 24 26 28 30 30 31 32 31 29 26 22 19 17 18 19 18 18 18 15 14 12 8 11 14 13 16 19 19 19 17 16 15 14 14 14 15 15 15 15 14 14 15 17 20 21 21 24 24 19 17 16 14 11 9 7 7 7 8 9 10 9 8 8 8 8 8 8 7 7
10 9 9 9 9 9 9 10 11 12 14 15 16 16 16 18 21 25 28 30 31 31 32 35 33 29 26 23 20 20 20 19 18 19 17 15 12 8 11 14 14 15 17 19 20 18 17 16 15 15 15 15 15 15 15 14 15 17 18 20 22 23 25 23 19 17 16 14 12 10 8 7 7 9 10 10 9 9 10 10 10 8 6 6 7
9 9 10 9 10 10 10 10 11 12 14 15 16 16 16 17 19 22 25 29 32 33 33 34 35 32 31 30 28 26 25 24 21 19 19 17 14 10 12 14 12 13 16 18 19 19 18 17 16 16 16 16 15 15 15 15 16 18 17 20 23 25 25 22 18 17 16 14 13 11 9 8 8 10 10 10 10 10 11 10 9 7 5 4 3
9 9 10 10 10 11 11 11 11 12 13 14 17 18 17 17 18 21 24 26 29 34 36 37 36 36 36 34 32 30 30 29 24 21 20 19 17 13 14 15 12 10 14 16 17 18 18 18 17 17 16 16 15 15 15 14 16 19 20 23 25 25 24 21 18 17 16 15 14 13 11 10 11 11 12 12 11 10 10 9 8 6 5 4 2
9 10 10 11 11 12 13 13 13 14 14 15 16 18 19 19 19 20 23 24 26 30 34 36 37 39 40 38 34 33 35 32 26 25 24 22 20 17 14 14 13 12 12 15 16 16 17 17 16 16 16 16 15 14 14 14 16 20 24 26 27 26 24 21 18 18 17 16 16 14 13 13 13 13 12 11 10 9 8 8 7 6 4 3 2
9 10 11 12 12 13 14 15 15 15 16 16 17 17 19 20 20 21 21 22 24 27 30 34 35 38 42 42 39 37 38 36 30 28 28 25 22 20 16 12 10 11 11 13 16 17 17 16 14 15 14 14 14 14 15 14 16 23 27 28 27 25 24 21 19 19 17 17 16 14 14 14 13 12 10 10 10 9 8 8 6 5 3 2 3
10 10 11 12 13 13 14 15 16 16 16 16 17 17 18 19 21 22 22 21 21 24 28 31 32 34 39 43 43 40 39 39 35 30 29 27 23 22 21 16 12 9 9 11 12 15 19 18 16 17 16 14 13 15 16 14 19 26 29 28 27 25 23 21 20 19 18 17 16 15 14 14 12 11 10 10 10 9 8 7 6 4 3 3 4
11 11 12 13 14 14 15 16 16 17 17 17 17 18 19 20 21 23 24 23 22 22 24 27 30 31 33 37 41 42 41 40 39 35 31 29 26 26 25 22 18 12 8 10 10 13 18 20 19 19 20 17 14 16 16 15 22 26 24 25 27 24 22 21 21 20 19 18 17 16 15 13 12 11 10 10 9 8 8 7 6 4 3 4 5
11 12 13 14 15 16 16 17 17 17 18 19 19 19 19 20 21 23 24 24 24 23 22 25 30 30 31 34 36 39 41 42 42 39 36 33 31 32 28 25 24 18 12 10 10 14 18 20 19 19 22 22 18 18 17 17 24 23 17 22 27 26 24 23 21 21 19 18 16 15 15 13 11 10 10 9 9 8 7 7 6 5 4 5 6
13 14 15 16 16 17 17 17 17 17 18 19 19 20 20 20 20 21 23 25 26 26 23 23 27 29 32 35 35 36 40 42 42 41 40 37 35 35 34 29 26 24 19 13 9 14 19 20 19 19 23 23 20 22 20 19 25 21 16 22 27 27 26 23 21 20 18 17 16 15 13 11 10 10 9 9 8 8 7 7 6 5 5 5 7
15 16 17 17 18 18 18 19 19 18 19 19 19 20 21 21 21 21 22 24 26 28 27 26 26 27 30 32 34 36 37 39 41 41 42 39 35 35 35 31 27 26 24 18 11 12 18 21 20 18 22 22 21 23 23 25 26 21 17 24 27 26 25 23 21 20 18 17 15 14 12 10 9 9 8 8 8 8 7 6 6 5 5 6 8
17 18 18 19 19 19 19 20 21 20 20 20 20 20 21 22 22 23 23 24 26 28 29 30 28 27 28 30 33 36 37 37 38 41 43 42 38 35 32 31 29 27 26 21 16 13 14 19 19 18 21 22 21 22 26 30 28 20 19 25 26 25 24 23 21 19 17 16 14 13 11 10 9 9 8 8 7 7 7 6 6 5 6 7 8
19 20 20 21 21 21 21 21 21 21 21 22 22 22 22 23 23 23 24 25 26 27 29 32 32 29 28 29 32 34 35 35 34 36 39 42 40 37 34 32 30 28 27 25 22 17 12 14 16 18 20 21 21 22 27 32 29 22 22 26 23 21 22 22 22 20 17 15 14 12 11 10 10 9 8 8 7 7 7 6 6 6 7 8 8
22 23 23 22 22 23 23 23 22 23 23 23 23 23 24 24 24 25 25 25 26 26 28 30 32 33 31 30 31 32 32 33 34 34 35 38 39 38 36 35 32 28 27 26 27 21 15 18 18 18 20 20 20 22 25 29 28 24 23 23 19 17 18 19 21 21 18 15 14 12 11 10 10 10 9 8 8 7 7 6 6 6 7 8 8
23 25 25 25 25 25 25 24 24 24 25 24 25 25 25 26 26 26 26 27 27 27 28 29 31 34 34 32 31 31 32 32 33 35 34 35 39 38 37 37 35 30 28 28 28 23 18 21 20 19 21 20 21 23 25 25 24 22 22 20 16 15 16 15 19 21 18 15 13 12 11 11 11 10 9 9 8 8 7 7 6 6 7 7 7
24 25 26 26 27 26 26 26 26 26 26 26 27 27 27 26 26 27 28 28 29 28 29 30 30 32 35 34 32 31 32 31 33 37 36 36 39 39 38 38 34 29 28 28 28 24 20 21 20 19 20 20 20 22 25 26 23 20 19 18 16 16 16 15 18 20 17 15 14 13 12 12 11 10 9 9 8 8 7 6 6 6 7 7 7
25 27 28 28 27 26 26 27 27 27 27 28 28 28 28 27 27 27 28 29 30 30 30 31 31 32 33 34 34 33 33 32 34 38 39 38 39 38 38 38 33 28 26 27 28 28 24 22 21 21 21 21 22 21 23 27 26 23 20 18 15 15 16 17 19 19 17 16 15 14 14 13 12 11 10 9 8 8 7 6 6 7 7 7 7
27 30 31 30 29 28 28 28 28 29 29 29 30 29 29 28 28 28 28 29 30 31 32 32 32 32 33 34 35 34 34 34 35 37 40 40 37 37 38 39 37 29 23 25 30 29 25 22 21 22 22 22 23 22 23 25 24 23 23 22 18 16 16 19 21 19 18 18 17 16 15 14 13 12 10 9 9 8 7 7 7 8 8 7 8
28 30 30 29 28 29 29 29 29 29 30 30 30 30 29 28 29 29 29 29 30 31 32 33 33 33 33 34 36 35 35 35 35 36 40 40 35 34 37 39 40 33 24 24 27 26 24 22 20 21 21 21 21 22 23 24 23 21 22 23 21 19 18 18 19 20 19 19 18 17 15 15 13 12 10 9 9 8 7 8 8 9 9 8 8
28 29 29 29 29 29 30 30 31 30 31 32 31 30 29 28 27 28 29 29 30 30 31 33 34 34 33 33 35 36 36 36 35 35 39 41 37 34 35 38 39 34 27 26 26 23 23 22 19 20 21 21 22 23 24 26 25 24 24 23 20 20 20 17 16 18 19 19 17 16 16 15 13 11 10 10 10 9 7 7 8 9 10 9 8
27 27 29 30 30 30 31 31 31 31 32 32 32 32 32 30 28 27 27 28 29 30 31 32 33 34 35 34 33 36 38 39 38 37 38 41 41 38 38 40 40 35 29 28 26 23 24 22 20 21 20 19 23 26 27 27 26 25 26 25 22 21 21 18 14 15 18 18 16 15 15 15 13 11 11 11 11 9 7 7 10 11 10 9 9
26 28 29 30 30 30 31 31 31 32 33 33 33 34 35 35 33 30 28 28 28 30 31 32 33 33 34 34 33 34 37 40 40 39 38 40 43 44 44 43 42 38 32 29 26 25 25 22 21 22 21 21 24 26 25 25 25 25 26 26 24 24 23 19 15 15 18 19 17 14 14 15 15 12 11 12 11 9 10 14 17 15 13 10 9
27 29 30 29 29 29 30 31 32 33 34 34 34 35 36 36 36 35 32 31 30 30 31 32 33 32 32 33 33 33 34 38 39 39 38 40 44 47 47 47 46 42 36 31 28 27 26 23 21 22 22 22 24 25 26 26 26 26 25 24 24 24 23 20 17 17 21 22 18 14 13 15 15 12 10 11 10 10 14 19 19 16 13 11 10
27 28 29 29 30 30 30 31 33 34 34 35 36 36 37 37 38 38 36 34 33 33 32 31 31 32 32 32 32 32 33 35 37 37 37 40 45 47 46 48 50 46 40 35 32 30 28 25 24 25 25 25 28 33 36 33 29 27 26 25 25 24 21 18 17 19 25 26 19 14 12 13 15 14 11 11 11 11 15 19 18 16 13 10 9
26 28 29 29 29 29 30 31 33 33 34 34 35 37 38 38 39 40 39 36 36 36 35 34 32 32 33 32 31 32 32 34 35 37 37 38 42 45 44 45 49 49 44 38 34 32 30 28 29 31 32 32 36 40 41 36 32 31 30 28 28 26 21 18 17 20 26 27 20 13 11 12 14 13 11 11 11 10 13 16 16 13 11 9 8
27 27 28 28 28 29 30 31 33 34 33 33 34 36 38 38 38 40 40 38 38 38 37 36 35 33 32 33 33 32 32 33 34 36 37 34 35 40 40 39 43 45 42 37 35 33 31 31 33 35 34 34 36 37 37 36 32 32 34 33 32 30 24 19 17 17 22 26 20 13 11 12 13 12 10 11 11 11 12 14 14 11 10 8 7
27 26 27 27 28 30 30 31 33 35 35 34 35 36 37 37 38 40 40 38 38 39 38 37 36 35 34 34 34 33 33 33 34 36 38 34 31 33 31 27 32 36 35 33 33 32 31 30 31 32 32 32 33 33 36 37 34 34 35 31 30 30 24 17 15 15 18 23 21 14 10 10 12 11 10 10 11 11 11 10 10 10 9 7 6
27 27 28 29 29 30 31 32 34 35 36 35 36 37 38 38 39 39 37 36 36 38 38 37 35 35 36 36 34 33 33 34 34 35 37 35 30 28 27 24 27 29 27 26 28 29 28 28 29 29 29 30 30 30 34 36 36 38 37 31 29 29 23 15 13 14 15 19 20 15 10 9 11 11 10 10 11 11 10 9 8 8 8 7 6
29 29 30 30 30 31 31 33 33 35 36 35 36 38 39 39 40 39 35 33 35 35 36 37 35 35 36 38 37 35 34 35 35 34 37 37 30 27 30 31 31 29 26 24 25 25 25 25 24 23 23 25 26 27 31 33 34 38 40 36 34 31 23 15 14 15 14 15 19 17 11 9 11 12 10 9 9 10 10 10 9 7 6 5 5
29 29 29 30 31 31 31 32 33 33 35 35 37 39 41 41 41 40 35 32 33 34 34 34 34 33 34 37 39 38 35 33 32 34 37 37 31 29 34 36 33 31 30 28 28 28 27 25 24 22 20 21 23 25 28 30 32 34 36 38 37 33 24 18 18 16 11 11 18 20 14 10 12 12 11 9 8 9 11 10 9 8 6 5 5
Wind_Direction
208 198 187 190 187 181 188 190 192 196 198 201 200 198 199 198 196 195 199 205 209 214 219 224 222 226 230 222 213 210 209 210 210 209 211 207 211 219 218 205 199 200 200 201 205 207 206 207 207 210 219 186 180 250 100 72 345 17 128 130 122 109 94 84 76 71 49 32 30 28 33 37 42 63 75 74 72 65 59 55 53 52 49 49 51
216 204 191 192 191 186 189 194 197 199 203 204 201 199 200 199 200 202 206 210 215 216 219 226 224 223 228 225 215 211 210 210 213 213 212 213 211 220 233 220 208 209 210 207 207 207 210 211 212 214 214 196 185 212 187 164 321 331 143 137 125 110 96 86 84 70 40 29 32 37 42 48 60 73 76 73 69 63 57 52 51 50 45 45 45
224 214 200 196 194 193 194 197 199 201 204 205 202 200 200 201 204 209 214 217 221 220 221 227 227 222 223 225 218 212 212 212 213 215 214 215 213 218 236 226 215 216 217 217 211 205 209 214 219 220 217 212 199 206 209 222 282 194 147 140 128 111 95 90 87 55 35 33 40 48 52 64 77 79 76 69 63 58 52 51 53 49 44 44 45
227 219 213 207 202 200 202 204 203 202 205 205 203 204 205 204 206 211 214 217 222 223 224 228 229 223 220 221 217 211 212 212 214 216 215 217 218 217 224 220 217 222 223 223 218 209 208 214 223 221 217 213 204 209 199 215 258 192 155 142 132 110 95 98 74 37 37 43 52 59 65 78 85 77 69 63 57 53 51 54 54 49 48 50 51
230 221 217 217 212 207 208 210 207 205 206 206 204 208 210 208 206 207 205 209 217 221 225 229 229 225 221 218 215 213 211 210 213 215 215 219 221 220 224 223 222 225 225 223 217 215 213 213 217 216 220 214 202 214 199 211 256 187 159 146 138 110 98 101 53 36 45 51 64 71 78 84 81 70 61 54 48 50 54 54 51 51 55 57 56
233 231 220 217 218 216 215 215 210 206 205 205 206 209 212 210 208 205 201 207 218 221 224 229 227 222 220 217 215 215 213 212 213 213 215 219 221 222 226 227 226 224 225 227 220 217 216 216 217 211 217 217 205 212 199 206 255 186 168 155 146 120 104 84 48 64 54 50 76 80 85 85 74 63 53 43 44 51 54 49 51 56 59 60 59
227 238 230 220 217 219 218 217 213 210 209 208 207 209 212 211 212 211 208 214 222 223 224 227 224 217 215 215 215 214 213 215 216 215 217 219 221 224 228 229 229 226 224 227 225 219 215 215 222 219 212 217 216 212 198 201 239 215 180 159 146 127 100 51 64 100 46 40 94 96 96 83 64 55 45 41 48 53 51 48 54 60 61 62 61
227 228 235 229 223 221 219 216 213 214 215 212 209 208 209 213 217 218 217 220 223 224 222 222 219 215 212 212 213 213 213 215 217 219 219 220 223 224 228 230 229 230 227 224 221 220 221 218 223 228 220 219 214 208 207 202 228 233 187 161 148 135 83 17 141 136 17 25 122 119 103 75 56 50 43 42 49 52 52 54 59 61 62 63 62
235 223 223 232 230 228 227 223 218 217 217 212 213 215 214 217 217 218 222 225 227 227 221 218 216 212 209 209 212 214 216 217 217 220 222 223 225 225 227 230 227 228 228 227 222 219 229 230 227 232 234 232 219 212 212 201 230 229 181 162 151 139 21 284 191 218 319 168 151 135 104 69 55 48 47 46 48 51 56 60 63 64 65 65 64
250 235 227 229 229 229 230 226 222 223 223 219 221 224 223 224 220 217 218 227 234 231 227 221 213 208 206 207 211 215 218 220 219 221 224 223 225 226 227 228 227 228 225 227 226 219 226 230 226 231 236 240 233 223 220 208 225 212 176 171 173 173 264 203 189 241 229 177 157 138 104 73 61 55 60 55 50 56 62 64 65 66 66 65 65
263 252 243 241 239 233 234 230 226 228 228 225 225 222 221 223 224 221 215 224 238 237 234 226 212 207 207 205 209 216 220 223 223 223 225 225 226 228 228 228 224 225 224 225 226 222 223 222 219 225 232 240 241 232 227 219 215 203 193 201 199 210 223 191 194 238 180 172 158 142 118 83 65 66 73 66 59 64 68 67 67 66 65 65 66
265 261 254 252 251 248 247 243 238 236 233 230 225 220 219 219 219 220 215 220 233 236 232 227 217 207 207 209 209 217 221 223 225 226 227 227 229 229 226 226 222 221 222 224 225 223 223 223 221 223 227 237 240 239 237 232 225 208 200 201 188 195 200 186 198 219 180 172 160 152 136 90 71 78 84 79 72 73 74 69 67 66 65 66 65
268 258 253 254 258 256 251 247 243 239 238 238 231 224 221 218 214 216 217 215 218 227 225 221 217 202 200 210 211 218 222 223 227 229 231 231 231 228 223 224 223 221 221 222 225 223 223 223 224 224 222 226 230 242 248 242 235 214 199 195 182 177 189 191 202 203 188 176 165 167 144 98 84 94 98 96 88 82 78 71 69 67 69 71 64
283 265 257 250 250 254 253 250 244 238 236 239 238 231 222 214 209 210 216 213 212 223 223 216 216 203 195 202 207 218 223 226 230 231 232 232 230 226 224 225 225 223 222 223 224 223 224 223 224 223 221 222 222 232 240 237 233 214 197 191 182 176 186 195 201 195 192 181 171 181 146 108 100 112 120 114 101 91 84 75 73 72 74 73 65
293 280 270 257 248 247 248 247 241 236 233 233 238 236 225 213 208 209 213 212 214 226 222 216 221 209 197 203 203 210 218 222 228 230 229 228 227 226 226 226 226 225 222 223 222 221 223 223 223 222 220 223 222 227 226 224 227 208 194 188 185 187 185 189 196 195 197 189 179 185 150 123 119 130 134 125 111 100 95 83 79 78 77 73 67
296 285 271 262 259 251 246 241 236 236 234 231 231 233 229 218 212 212 210 206 212 226 222 216 225 220 205 210 204 206 219 214 217 223 223 222 223 224 227 228 227 227 222 222 220 219 223 222 222 220 218 220 220 224 224 220 222 206 197 192 190 194 184 184 195 198 199 194 186 187 158 133 134 144 141 130 123 113 105 94 88 84 81 75 71
300 293 280 269 265 259 253 245 238 235 233 231 229 229 234 230 221 215 213 209 208 220 223 215 222 229 227 225 209 209 231 211 205 215 216 219 223 221 226 230 228 227 224 222 219 219 222 220 220 218 215 217 216 220 220 216 214 204 201 197 193 197 186 184 195 197 198 199 192 186 161 147 149 151 148 139 131 123 115 103 96 93 91 89 82
302 296 289 281 274 269 264 256 248 242 236 235 233 231 234 234 227 219 216 214 207 210 223 217 218 229 232 235 239 244 247 219 208 215 210 216 226 225 225 229 229 227 224 222 218 217 218 215 215 214 213 214 213 216 214 209 203 197 201 199 195 199 188 185 194 196 198 201 193 183 164 159 157 151 150 148 137 128 122 112 109 107 103 100 93
302 295 290 287 284 279 271 265 259 253 245 240 238 235 234 232 224 217 215 214 208 206 221 221 217 226 231 234 243 252 257 239 227 227 213 213 223 227 229 228 227 227 225 221 217 214 212 210 210 210 211 211 209 210 205 201 198 192 198 200 199 204 191 187 193 194 198 203 193 182 170 167 161 154 155 156 147 139 132 124 120 115 107 101 94
302 297 294 289 286 283 277 272 265 261 256 248 244 240 239 238 227 219 216 214 210 207 216 220 212 220 231 234 238 244 249 250 244 241 242 229 218 224 231 230 225 226 225 222 218 214 210 209 211 208 207 206 202 200 195 196 197 194 200 201 203 208 195 187 190 193 200 203 191 181 174 171 164 158 163 164 158 150 142 136 130 121 113 105 95
301 299 300 295 289 284 280 276 268 264 262 256 252 247 244 242 235 228 222 217 214 210 212 217 212 215 225 229 233 239 245 247 245 245 250 249 236 221 218 219 221 222 220 219 218 214 211 212 214 208 201 197 194 191 192 195 194 194 205 205 204 206 196 187 190 197 204 201 190 182 175 169 163 163 170 171 168 165 161 156 144 128 118 108 99
300 297 298 298 294 287 280 276 271 267 265 262 257 253 253 248 240 236 231 225 221 216 214 217 217 216 219 222 227 233 239 241 238 240 245 246 250 237 205 202 210 215 213 214 214 212 211 210 211 209 198 190 189 188 191 195 194 197 206 207 204 201 192 187 192 201 204 198 186 181 176 165 164 169 174 174 175 176 166 152 142 132 122 109 100
299 296 295 296 295 289 281 276 272 267 264 264 261 257 257 254 246 241 238 233 229 223 218 218 219 218 219 221 223 229 237 241 236 236 238 240 245 243 220 210 210 212 207 208 212 211 211 208 207 208 198 188 187 187 191 196 198 200 205 205 203 197 190 188 194 200 200 193 183 180 178 168 164 166 170 173 173 167 159 155 156 153 138 117 103
296 295 292 291 293 289 283 278 274 268 263 262 262 261 260 258 253 245 238 235 233 227 220 219 218 217 219 222 223 227 236 242 241 237 237 240 239 237 233 220 214 213 200 197 208 210 208 208 204 202 197 189 187 189 191 192 196 204 209 204 199 194 189 189 194 198 197 189 181 179 178 173 167 165 167 169 170 173 179 187 192 192 184 161 135
292 290 286 285 286 283 281 280 276 272 268 263 261 261 262 260 257 250 241 235 233 228 223 221 218 215 217 222 224 225 230 237 242 239 236 237 235 235 235 225 219 214 195 190 203 208 206 207 202 198 197 190 187 189 187 189 200 207 203 195 192 191 189 191 197 198 194 189 183 180 176 168 162 160 162 168 177 192 205 212 215 217 219 221 227
283 282 281 280 277 275 276 275 274 274 272 267 263 260 261 259 257 255 249 242 236 231 226 223 221 218 217 219 223 226 228 230 235 238 236 233 231 231 234 230 221 218 206 193 200 205 199 199 200 198 192 185 185 187 182 189 201 197 189 186 186 189 190 193 201 199 194 191 187 183 178 171 167 170 175 185 200 215 221 221 222 225 230 238 273
274 276 276 276 274 272 273 272 272 273 271 267 263 261 259 257 254 253 253 249 242 236 230 225 221 220 221 221 221 225 227 227 228 234 235 232 231 228 229 233 221 218 221 206 202 205 195 189 196 195 184 176 183 188 183 190 195 185 183 184 183 188 192 195 200 199 196 195 192 190 187 184 184 191 200 210 218 222 223 225 227 227 234 259 305
271 272 273 272 271 271 271 270 270 270 268 266 264 262 259 255 253 251 250 250 246 240 235 229 222 220 221 221 221 223 226 226 226 229 232 233 236 232 225 227 228 220 223 219 210 208 199 193 196 196 188 180 185 187 179 185 190 182 182 185 183 187 194 195 198 198 198 198 197 196 195 194 198 206 215 218 219 223 226 228 228 230 245 279 311
271 272 273 270 269 269 269 269 268 267 266 265 264 263 260 255 252 249 247 246 247 245 240 234 229 224 221 220 221 223 225 226 227 227 229 230 235 237 229 224 229 229 224 222 218 215 205 193 194 202 199 192 187 181 171 178 187 179 176 183 184 188 193 196 198 197 198 200 199 199 198 198 203 209 215 218 217 221 224 226 228 236 260 291 310
273 275 276 274 270 269 269 268 267 266 264 263 263 264 261 257 254 251 247 244 244 245 243 239 233 227 223 222 221 222 222 224 226 225 226 227 230 237 237 227 223 227 232 230 219 217 205 188 189 197 195 191 185 178 171 178 185 174 169 182 186 190 193 194 197 196 197 199 198 199 198 198 203 206 210 214 216 220 222 226 231 243 271 296 309
278 277 276 275 273 271 269 268 267 265 263 261 261 263 262 258 256 253 248 244 242 242 242 242 237 230 226 225 221 219 220 222 223 222 224 227 228 234 240 235 223 220 228 235 229 214 200 191 194 186 178 180 184 183 177 177 179 168 166 186 190 191 190 189 193 194 195 197 195 195 193 193 197 200 207 211 214 218 219 226 234 251 278 296 308
279 278 276 273 272 272 270 269 267 264 263 261 258 258 259 257 254 253 250 247 243 241 239 241 242 236 231 228 225 221 220 219 220 220 222 225 226 228 235 239 230 221 222 228 237 221 198 195 197 178 168 174 181 186 180 174 173 164 170 189 190 186 183 183 188 190 191 192 191 189 186 186 192 196 203 207 210 218 220 229 240 258 281 295 309
277 277 276 274 272 271 269 269 267 265 262 260 258 256 256 256 254 252 252 249 247 245 240 239 241 241 237 234 232 228 223 219 218 219 220 222 224 225 230 239 237 226 220 219 229 229 200 196 195 169 164 173 174 179 180 174 170 165 175 186 182 177 178 180 182 184 188 190 186 185 181 181 189 194 200 204 208 218 223 231 246 264 283 297 310
277 276 276 275 273 270 269 268 266 265 262 259 258 256 254 256 256 253 250 248 248 248 245 241 239 240 240 238 237 234 230 225 220 217 217 218 221 224 228 238 239 229 221 217 222 222 188 180 183 161 162 171 165 171 181 177 169 166 174 175 168 170 177 180 180 180 184 186 182 182 179 180 189 193 198 203 208 219 227 237 250 268 286 299 311
277 276 275 275 273 271 269 267 265 263 262 259 257 256 254 253 254 255 253 249 247 246 246 245 241 239 239 240 239 236 233 232 226 219 215 215 218 221 224 232 236 230 224 220 222 218 182 169 177 165 165 169 160 165 177 176 170 165 165 164 159 163 169 175 181 180 179 184 183 180 180 182 190 195 198 204 211 221 231 241 255 273 288 301 313
276 274 273 273 273 272 269 267 265 263 261 259 257 255 253 252 251 252 254 252 249 246 244 245 245 242 239 239 240 237 232 231 229 224 217 211 213 216 219 227 231 225 220 219 222 219 191 180 185 173 166 165 158 160 163 163 164 161 157 157 158 157 154 161 178 180 177 182 184 182 184 186 191 197 202 208 215 224 234 245 261 278 289 299 311
274 274 273 272 272 271 268 267 265 263 262 259 258 256 253 252 251 251 252 251 250 248 245 244 246 245 241 239 240 240 235 230 228 227 222 213 211 213 217 223 226 221 214 213 217 215 193 181 181 170 163 159 153 157 160 157 155 154 154 156 155 152 148 157 175 179 175 177 183 183 184 188 194 200 206 212 218 226 236 249 264 275 285 294 304
276 275 274 273 271 268 267 267 264 263 262 260 258 257 253 252 251 250 249 249 248 247 247 244 243 243 243 240 239 239 237 234 229 227 226 221 215 212 213 217 221 223 216 209 213 213 196 178 168 160 159 157 151 156 165 163 158 157 157 156 155 155 159 165 172 176 176 178 183 184 185 190 195 201 209 216 222 229 239 253 266 272 278 286 296
279 277 275 273 270 269 268 267 265 263 262 260 258 256 253 250 249 248 247 247 246 245 245 243 241 241 242 242 239 238 238 236 232 227 226 226 219 212 211 213 216 222 218 210 213 212 196 177 166 161 160 160 157 159 166 166 163 163 161 159 160 163 166 170 171 171 175 181 183 184 189 193 196 203 212 217 223 234 246 256 264 268 271 279 289
281 279 277 274 271 270 269 266 265 263 261 260 257 255 252 249 247 246 245 245 245 244 243 241 238 238 240 241 239 238 237 237 235 229 225 224 221 215 211 209 212 218 215 212 217 212 195 179 170 164 160 159 160 159 162 165 165 169 171 166 165 165 164 168 173 173 176 180 182 183 188 193 197 204 212 219 229 237 245 256 264 264 264 272 285
283 281 278 276 273 271 270 267 266 263 261 259 255 252 250 247 246 245 244 243 244 244 243 241 238 237 238 239 238 237 237 236 236 233 227 223 220 216 210 204 209 216 213 212 217 208 191 181 168 162 162 163 165 163 166 174 176 175 176 171 164 162 159 160 170 179 180 178 176 179 187 192 194 202 207 214 226 233 243 259 259 255 258 266 280
284 282 280 278 275 272 270 269 266 263 260 257 254 251 248 246 245 245 244 243 242 242 243 241 238 235 235 237 237 236 236 237 237 236 232 227 223 220 213 207 209 214 210 207 207 198 189 182 167 163 166 167 170 171 174 181 180 174 172 171 165 160 158 156 162 177 182 176 170 173 185 188 186 193 199 203 211 220 228 223 217 233 260 272 279
287 285 283 280 277 273 271 269 265 262 259 257 255 253 250 247 245 244 244 244 242 241 241 240 238 235 233 235 235 235 235 235 236 236 233 230 227 224 221 213 210 211 207 201 199 197 197 190 171 167 171 171 175 179 178 178 178 175 172 172 167 162 162 163 164 175 183 179 172 173 183 187 188 193 201 202 203 206 210 210 215 236 263 272 277
291 289 286 282 279 276 273 269 266 263 261 259 257 255 252 250 246 243 243 244 244 242 241 240 238 235 233 232 233 233 232 232 234 234 231 228 225 223 221 216 212 211 210 206 199 194 193 187 174 174 181 176 172 177 180 178 177 176 174 174 171 169 172 174 171 174 178 176 172 173 180 189 195 202 206 203 198 198 210 220 230 245 258 265 275
293 290 286 282 280 278 274 271 267 264 262 261 259 257 254 252 248 243 241 241 242 243 242 243 241 236 232 232 231 230 229 229 230 230 228 225 223 221 220 216 213 212 214 213 208 200 192 184 177 179 184 181 181 188 190 184 175 171 173 177 176 174 175 178 173 169 171 173 171 172 181 189 195 204 208 203 199 202 215 229 241 248 253 262 274
293 289 286 282 279 276 273 271 269 266 264 261 260 258 255 252 249 244 240 239 241 241 241 243 245 240 233 231 231 230 228 226 226 225 225 223 221 220 219 213 209 209 210 210 211 211 208 202 197 196 196 196 198 200 197 189 179 175 175 176 173 168 165 166 167 169 176 178 173 173 187 188 188 201 209 200 196 198 212 230 242 246 250 259 266
292 288 285 280 277 274 272 271 269 268 265 262 259 258 256 253 250 245 240 238 239 240 239 240 243 244 240 233 231 231 229 225 223 222 221 219 214 213 213 209 205 206 208 208 211 215 215 213 211 208 204 203 204 201 195 189 184 182 179 176 172 166 159 154 153 161 176 181 177 181 196 186 182 199 205 194 192 194 205 230 245 243 244 251 257
291 288 285 280 277 275 273 272 271 270 267 264 260 257 255 252 249 243 238 236 237 238 237 237 239 242 242 237 232 231 231 227 223 221 220 218 209 204 202 197 194 196 200 203 207 210 210 211 212 209 205 205 205 201 195 190 187 184 178 170 167 165 157 143 143 152 170 181 183 190 197 182 179 196 197 187 191 192 194 219 241 238 232 238 252
296 293 290 286 282 279 276 274 273 272 270 266 261 257 253 249 245 240 235 234 235 236 235 235 236 237 238 237 233 231 231 229 225 221 217 213 204 192 184 179 179 183 186 190 195 199 202 206 207 205 206 207 206 202 196 193 193 189 177 163 163 166 156 141 151 160 167 180 185 190 199 186 179 190 191 184 192 196 188 195 218 230 229 231 250
301 298 295 291 286 281 278 276 274 272 270 267 262 257 251 246 241 236 233 233 234 234 234 234 234 234 235 236 236 232 231 230 226 219 212 206 197 185 180 176 172 173 176 177 180 183 186 191 193 194 197 199 197 195 194 194 195 192 184 175 171 167 157 151 161 159 160 177 183 185 192 185 176 185 187 178 187 199 193 188 198 215 231 246 277
305 301 298 295 290 285 281 278 276 273 271 269 265 258 250 244 239 234 232 233 232 232 232 231 230 231 232 234 236 232 231 232 225 215 210 204 194 189 186 178 170 171 174 175 174 173 173 175 177 177 176 177 178 180 182 185 185 186 187 183 174 165 160 160 160 159 161 175 182 183 186 181 177 183 185 179 184 196 192 189 193 202 216 239 274